Powrót do katalogu

ATLAS 2AS CENTAUR R/B

AktywnyHEO
NORAD 26636·ROCKET BODY·🇺🇸 United States

Wystrzelony Dec 6, 2000 z Cape Canaveral Space Force Station

Loading…

Następne Przeloty (najbliższe 24 godziny)

TLE

ŚwieżeSource: Space-Track

Epoka: Sep 14, 2026, 11:34 UTC

1 26636U 00080B   26257.48229770  .00020375  00000-0  16964-2 0  9997
2 26636  26.1541 231.8088 5842263 129.8392 298.2205  4.32157057100348

Śledź ATLAS 2AS CENTAUR R/B w czasie rzeczywistym z AllMySat

Download on the App Store